Location: Blackrock Ranger Station
(36.0936°N, 118.2611°W)
Time: 07:30:53
(UTC-07:00)

AO-7 - Pass Details

Date: 26 February 2026
Orbit: 1440 x 1458 km, 102.0° (Epoch: 15 March)

Event Time Altitude Azimuth Distance (km) Brightness Sun altitude
Rises 05:18:50 0° 27° (NNE) 4,561 ? -14.5°
Reaches altitude 10° 05:22:05 10° 38° (NE) 3,581 ? -13.9°
Maximum altitude 05:29:19 32° 98° (E) 2,295 ? -12.4°
Drops below altitude 10° 05:36:30 10° 158° (SSE) 3,569 ? -11.0°
Sets 05:39:41 0° 168° (SSE) 4,544 ? -10.3°
